Weather History for KTBN - December, 2013

Change the Weather History Date:

Monday, December 2, 2013

  Actual Average Record
Temperature  
Mean Temperature 50 °F -  
Max Temperature 59 °F 48 °F 72 °F (2012)
Min Temperature 42 °F 34 °F 12 °F (2006)
Degree Days  
Heating Degree Days 14    
Moisture  
Dew Point 44 °F    
Average Humidity 95    
Maximum Humidity 100    
Minimum Humidity 59    
Precipitation  
Precipitation 0.00 in - - ()
Sea Level Pressure  
Sea Level Pressure 29.80 in    
Wind  
Wind Speed 3 mph (SSW)    
Max Wind Speed 8 mph    
Max Gust Speed -    
Visibility 4 miles    
Events Fog    
Averages and records for this station are not official NWS values.
T = Trace of Precipitation, MM = Missing Value Source: NWS Daily Summary

Daily Weather History Graph

Daily Weather History Graph

Search for Another Location

Airport or City:

Trip Planner

Search our weather history database for the weather conditions in past years. The results will help you decide how hot, cold, wet, or windy it might be!

Date:

Astronomy

Dec. 02, 2013 Rise Set
Actual Time 7:06 AM CST 4:49 PM CST
Civil Twilight 6:37 AM CST 5:18 PM CST
Nautical Twilight 6:04 AM CST 5:51 PM CST
Astronomical Twilight 5:33 AM CST 6:22 PM CST
Moon 6:32 AM CST (12/2) 4:52 PM CST (12/2)
Length of Visible Light 10h 41m
Length of Day
9h 43m
Waning Crescent, 0% of the Moon is Illuminated
Dec 2
Waning Crescent
Dec 2
New
Dec 9
First Quarter
Dec 17
Full
Dec 25
Last Quarter

Hourly Weather History & Observations

Time (CST) Temp. Windchill Dew Point Humidity Pressure Visibility Wind Dir Wind Speed Gust Speed Precip Events Conditions
12:03 AM 44.6 °F - 44.6 °F 100% 29.87 in 2.5 mi SW 2.3 mph - N/A   Clear
12:13 AM 42.8 °F 40.1 °F 42.8 °F 100% 29.87 in 1.5 mi WSW 4.6 mph - N/A   Clear
12:18 AM 42.8 °F 40.1 °F 42.8 °F 100% 29.87 in 1.0 mi SW 4.6 mph - N/A   Clear
12:38 AM 42.8 °F 40.1 °F 42.8 °F 100% 29.87 in 0.8 mi WSW 4.6 mph - N/A   Mist
12:48 AM 42.8 °F 40.1 °F 42.8 °F 100% 29.87 in 0.2 mi West 4.6 mph - N/A Fog Fog
12:58 AM 43.9 °F 41.3 °F 43.9 °F 100% 29.88 in 0.2 mi Variable 4.6 mph - N/A Fog Fog
1:58 AM 44.6 °F - 44.6 °F 100% 29.87 in 0.2 mi NW 2.3 mph - N/A Fog Fog
2:03 AM 44.6 °F - 44.6 °F 100% 29.85 in 0.2 mi NW 2.3 mph - N/A Fog Fog
2:08 AM 42.8 °F - 42.8 °F 100% 29.85 in 0.2 mi NW 2.3 mph - N/A Fog Fog
2:23 AM 42.8 °F - 42.8 °F 100% 29.86 in 0.2 mi Variable 2.3 mph - N/A Fog Fog
2:55 AM 42.8 °F 41.1 °F 42.8 °F 100% 29.86 in 0.2 mi SW 3.5 mph - N/A Fog Fog
2:58 AM 43.3 °F 41.7 °F 43.3 °F 100% 29.87 in 0.2 mi SW 3.5 mph - 0.00 in Fog Fog
3:05 AM 42.8 °F 41.1 °F 42.8 °F 100% 29.86 in 0.2 mi SSW 3.5 mph - N/A Fog Fog
3:40 AM 42.8 °F 41.1 °F 42.8 °F 100% 29.84 in 0.5 mi Variable 3.5 mph - N/A Fog Fog
3:50 AM 42.8 °F 41.1 °F 42.8 °F 100% 29.83 in 0.2 mi SSW 3.5 mph - N/A Fog Fog
3:58 AM 43.0 °F 41.3 °F 43.0 °F 100% 29.84 in 0.5 mi SW 3.5 mph - 0.00 in Fog Fog
4:08 AM 42.8 °F - 42.8 °F 100% 29.83 in 0.8 mi SW 2.3 mph - N/A   Mostly Cloudy
4:13 AM 42.8 °F - 42.8 °F 100% 29.83 in 1.0 mi WSW 2.3 mph - N/A   Mostly Cloudy
4:18 AM 42.8 °F - 42.8 °F 100% 29.83 in 1.2 mi SW 1.2 mph - N/A   Mostly Cloudy
4:23 AM 42.8 °F - 42.8 °F 100% 29.82 in 1.5 mi NW 1.2 mph - N/A   Mostly Cloudy
4:58 AM 43.2 °F - 43.2 °F 100% 29.83 in 2.0 mi Calm Calm - N/A   Overcast
5:08 AM 42.8 °F - 42.8 °F 100% 29.82 in 3.0 mi Calm Calm - N/A   Overcast
5:13 AM 42.8 °F - 42.8 °F 100% 29.81 in 2.5 mi ESE 1.2 mph - N/A   Overcast
5:43 AM 42.8 °F - 42.8 °F 100% 29.81 in 3.0 mi SSW 1.2 mph - N/A   Overcast
5:58 AM 43.3 °F - 43.3 °F 100% 29.83 in 4.0 mi South 2.3 mph - N/A   Overcast
6:58 AM 43.2 °F - 43.2 °F 100% 29.83 in 3.0 mi Calm Calm - N/A   Overcast
7:03 AM 42.8 °F - 42.8 °F 100% 29.81 in 2.5 mi SSW 1.2 mph - N/A   Mostly Cloudy
7:08 AM 42.8 °F - 42.8 °F 100% 29.81 in 1.0 mi SSW 1.2 mph - N/A   Mostly Cloudy
7:13 AM 42.8 °F - 42.8 °F 100% 29.80 in 0.8 mi South 2.3 mph - N/A   Mostly Cloudy
7:18 AM 42.8 °F 41.1 °F 42.8 °F 100% 29.80 in 1.0 mi South 3.5 mph - N/A   Mostly Cloudy
7:28 AM 42.8 °F 40.1 °F 42.8 °F 100% 29.80 in 1.2 mi South 4.6 mph - N/A   Mostly Cloudy
7:33 AM 42.8 °F 40.1 °F 42.8 °F 100% 29.80 in 1.8 mi South 4.6 mph - N/A   Mostly Cloudy
7:38 AM 42.8 °F - 42.8 °F 100% 29.80 in 2.5 mi SSW 2.3 mph - N/A   Mostly Cloudy
7:43 AM 42.8 °F - 42.8 °F 100% 29.80 in 3.0 mi SSW 1.2 mph - N/A   Mostly Cloudy
7:48 AM 42.8 °F - 42.8 °F 100% 29.80 in 3.0 mi WSW 2.3 mph - N/A   Mostly Cloudy
7:53 AM 42.8 °F - 42.8 °F 100% 29.80 in 2.0 mi WSW 2.3 mph - N/A   Mostly Cloudy
7:58 AM 42.6 °F 40.9 °F 42.6 °F 100% 29.82 in 2.0 mi SW 3.5 mph - N/A   Mostly Cloudy
8:08 AM 42.8 °F 41.1 °F 42.8 °F 100% 29.79 in 3.0 mi SSW 3.5 mph - N/A   Overcast
8:28 AM 44.6 °F - 44.6 °F 100% 29.78 in 4.0 mi South 2.3 mph - N/A   Overcast
8:58 AM 44.8 °F - 44.8 °F 100% 29.82 in 5.0 mi WNW 2.3 mph - N/A   Overcast
9:03 AM 44.6 °F - 44.6 °F 100% 29.80 in 5.0 mi Calm Calm - N/A   Overcast
9:58 AM 48.2 °F - 48.2 °F 100% 29.80 in 10.0 mi SW 4.6 mph - N/A   Overcast
10:58 AM 51.8 °F - 46.4 °F 82% 29.78 in 10.0 mi Variable 4.6 mph - N/A   Overcast
11:58 AM 55.8 °F - 46.4 °F 71% 29.74 in 10.0 mi SSW 8.1 mph - N/A   Clear
12:58 PM 57.6 °F - 45.3 °F 64% 29.71 in 10.0 mi SSW 5.8 mph - N/A   Clear
1:58 PM 59.9 °F - 46.4 °F 61% 29.70 in 10.0 mi Variable 3.5 mph - N/A   Clear
2:58 PM 58.8 °F - 44.6 °F 59% 29.68 in 10.0 mi Calm Calm - N/A   Clear
3:58 PM 57.0 °F - 44.2 °F 62% 29.69 in 10.0 mi SSW 3.5 mph - N/A   Clear
4:58 PM 54.0 °F - 44.6 °F 71% 29.70 in 10.0 mi SSW 2.3 mph - N/A   Clear
5:58 PM 50.5 °F - 43.9 °F 78% 29.71 in 10.0 mi South 5.8 mph - N/A   Clear
6:58 PM 48.7 °F - 44.2 °F 84% 29.72 in 10.0 mi South 4.6 mph - N/A   Clear
7:58 PM 45.0 °F 41.8 °F 43.2 °F 93% 29.72 in 10.0 mi South 5.8 mph - N/A   Clear
8:58 PM 48.4 °F - 45.7 °F 90% 29.71 in 10.0 mi South 5.8 mph - N/A   Clear
9:58 PM 46.2 °F 44.1 °F 44.6 °F 94% 29.68 in 10.0 mi SSE 4.6 mph - N/A   Clear
10:58 PM 48.4 °F - 46.2 °F 92% 29.68 in 10.0 mi SSE 4.6 mph - N/A   Partly Cloudy
11:58 PM 44.8 °F 41.6 °F 44.4 °F 99% 29.69 in 10.0 mi SSE 5.8 mph - N/A   Mostly Cloudy